#timestamp,LO_Frequency,Hit,StdDev 
1659769215.3,286047000.2,N
1659769235.2,286046999.7,N
1659769255.9,286047000.1,N
1659769275.7,286047000.4,N
1659769295.6,286047000.1,N
1659769315.4,286046999.9,N
1659769335.3,286046999.7,N
1659769355.1,286047002.6,Y
1659769356.0,286047002.6,P
1659769375.8,286047002.4,N
1659769395.7,286046999.7,N
1659769415.5,286047002.1,N
1659769435.3,286046999.9,N
1659769455.2,286047002.2,N
1659769475.0,286047002.8,N
1659769475.9,286047002.8,N
1659769495.8,286047002.8,N
1659769515.6,286047002.6,N
1659769535.4,286047001.8,N
1659769555.3,286047002.0,N
1659769575.1,286047001.1,N
1659769595.8,286047001.2,N
1659769615.7,286047000.3,N
1659769635.5,286047002.5,N
1659769655.4,286047002.5,N
1659769675.2,286047000.9,N
1659769695.0,286046998.1,N
1659769695.9,286046998.1,N
1659769715.8,286046998.8,N
1659769735.6,286046998.6,N
1659769755.4,286046998.2,N
1659769775.3,286046998.9,N
1659769795.1,286046999.4,N
1659769815.9,286047001.1,N
1659769835.7,286046998.4,N
1659769855.5,286047001.2,N
1659769875.4,286047000.8,N
1659769895.2,286047000.9,N
1659769915.0,286046998.4,N
1659769915.9,286046998.4,N
1659769935.8,286046999.0,N
1659769955.6,286046996.8,N
1659769975.5,286046999.3,N
1659769995.3,286046997.1,N
1659770015.1,286046998.9,N
1659770035.9,286046997.0,N
1659770055.7,286046996.7,N
1659770075.5,286046996.5,N
1659770095.4,286046997.1,N
1659770115.2,286046999.2,N
1659770135.1,286046999.2,N
1659770136.0,286046999.2,N
1659770155.8,286046997.6,N
1659770175.6,286046997.7,N
1659770195.5,286046996.8,N
1659770215.3,286046996.7,N
1659770235.1,286046999.5,N
1659770255.9,286046997.8,N
1659770275.7,286046997.3,N
1659770295.6,286046997.4,N
1659770315.4,286046995.4,Y
1659770335.2,286046998.1,P
1659770355.1,286046998.5,P
1659770356.0,286046998.5,P
1659770375.8,286046999.0,Y
1659770395.6,286047000.9,P
1659770415.5,286047002.8,N
1659770435.3,286046998.3,N
1659770455.2,286047000.8,N
1659770475.9,286047002.4,N
1659770495.7,286047001.0,N
1659770515.6,286047000.3,N
1659770535.4,286047002.8,N
1659770555.2,286046999.8,N
1659770575.1,286047000.8,N
1659770576.0,286047000.8,N
1659770595.8,286047001.2,N
1659770615.7,286047000.8,N
1659770635.5,286047002.7,N
1659770655.3,286047000.5,N
1659770675.2,286047000.9,N
1659770695.0,286047000.0,N
1659770695.9,286047000.0,N
1659770715.8,286047000.3,N
1659770735.6,286047002.8,N
1659770755.4,286047002.6,N
1659770775.3,286047000.9,N
1659770795.1,286046999.9,N
1659770815.8,286046998.9,N
1659770835.7,286046999.2,N
1659770855.5,286046998.1,N
1659770875.4,286046998.2,N
1659770895.2,286046999.0,N
1659770915.0,286047001.2,N
1659770915.9,286047001.2,N
1659770935.8,286046998.7,N
1659770955.6,286046998.5,N
1659770975.5,286046998.5,N
1659770995.3,286046998.9,N
1659771015.1,286046998.3,N
1659771035.9,286047001.2,N
1659771055.7,286046998.3,N
1659771075.5,286046998.6,N
1659771095.4,286047001.2,N
1659771115.2,286047001.1,N
1659771135.1,286046998.4,N
1659771136.0,286046998.4,N
1659771155.8,286046998.2,N
1659771175.6,286047000.8,N
1659771195.5,286047004.8,Y
1659771215.3,286047007.5,P
1659771235.2,286047004.2,N
1659771255.9,286047001.5,N
1659771275.7,286046999.8,N
1659771295.6,286047002.2,N
1659771315.4,286047002.3,N
1659771335.3,286047001.8,N
1659771355.1,286046998.1,N
1659771356.0,286046998.1,N
1659771375.8,286047001.1,N
1659771395.7,286047000.5,N
1659771415.5,286047000.9,N
1659771435.3,286046999.4,N
1659771455.2,286046997.6,N
1659771475.0,286046995.6,N
1659771475.9,286046995.6,N
1659771495.8,286046997.8,N
1659771515.6,286046995.0,N
1659771535.4,286046997.9,N
1659771555.3,286046996.9,N
1659771575.1,286046997.4,N
1659771595.9,286046997.7,N
1659771615.7,286046997.9,N
1659771635.5,286046996.9,N
1659771655.4,286046997.2,N
1659771675.2,286046996.9,N
1659771695.0,286046999.1,N
1659771696.0,286046999.1,N
1659771715.8,286046999.4,N
1659771735.6,286046999.2,N
1659771755.5,286047001.2,N
1659771775.3,286046998.3,N
1659771795.1,286046998.4,N
1659771815.9,286046996.8,N
1659771835.7,286046999.6,N
1659771855.6,286046998.0,N
1659771875.4,286046996.8,N
1659771895.2,286046996.9,N
1659771915.1,286046997.2,N
1659771916.0,286046997.2,N
1659771935.8,286046997.4,N
1659771955.6,286046997.8,N
1659771975.5,286046997.9,N
1659772025.3,286046999.6,E
1659772035.3,286046997.0,N
1659772055.1,286046996.8,P
1659772056.0,286046996.8,P
1659772075.8,286046997.2,Y
1659772095.7,286047000.8,P
1659772115.5,286047000.4,N
1659772135.4,286046998.2,N
1659772155.2,286046998.1,N
1659772175.0,286047001.0,N
1659772175.9,286047001.0,N
1659772195.8,286047002.4,N
1659772215.6,286047000.1,N
1659772235.4,286047000.0,N
1659772255.3,286047002.7,N
1659772275.1,286047001.6,N
1659772295.9,286047003.8,N
1659772315.7,286047001.8,N
1659772335.5,286047004.4,N
1659772355.4,286047004.4,N
1659772375.2,286047004.0,N
1659772395.0,286047002.0,N
1659772395.9,286047002.0,N
1659772415.8,286046999.8,N
1659772435.6,286047002.7,N
1659772455.5,286047002.3,N
1659772475.3,286047002.3,N
1659772495.1,286047000.1,N
1659772515.9,286047002.5,N
1659772535.7,286047000.1,N
1659772555.5,286047001.0,N
1659772575.4,286047002.7,N
1659772595.2,286047001.0,N
1659772615.0,286046998.4,N
1659772615.9,286046998.4,N
1659772635.8,286047000.8,N
1659772655.6,286047000.1,N
1659772675.5,286047000.8,N
1659772695.3,286047000.0,N
1659772715.1,286047002.1,N
1659772735.9,286047002.6,N
1659772755.7,286047002.3,N
1659772775.5,286047002.6,N
1659772795.4,286047000.4,N
